Imperial, NE

11:43 PM MDT on September 25, 2016 (GMT -0600)
Imperial Municipal

Weather History for KIML - February, 2014

Change the Weather History Date:

Tuesday, February 4, 2014

  Actual Average Record
Temperature  
Mean Temperature 9 °F 30 °F  
Max Temperature 19 °F 42 °F 69 °F (1935)
Min Temperature -2 °F 17 °F -21 °F (1899)
Degree Days  
Heating Degree Days 56 36  
Month to date heating degree days 222 144  
Cooling Degree Days 0 0  
Month to date cooling degree days 0 0  
Year to date cooling degree days 0 0  
Moisture  
Dew Point 3 °F    
Average Humidity 84    
Maximum Humidity 92    
Minimum Humidity 75    
Precipitation  
Precipitation 0.00 in 0.01 in 0.22 in (1945)
Sea Level Pressure  
Sea Level Pressure 30.23 in    
Wind  
Wind Speed 17 mph (NNE)    
Max Wind Speed 26 mph    
Max Gust Speed 32 mph    
Visibility 4 miles    
Events Fog , Snow    
T = Trace of Precipitation, MM = Missing Value Source: NWS Daily Summary

Daily Weather History Graph

Daily Weather History Graph

Search for Another Location

Airport or City:

Trip Planner

Search our weather history database for the weather conditions in past years. The results will help you decide how hot, cold, wet, or windy it might be!

Date:

Astronomy

Feb. 04, 2014 Rise Set
Actual Time 6:52 AM MST 5:08 PM MST
Civil Twilight 6:24 AM MST 5:37 PM MST
Nautical Twilight 5:51 AM MST 6:09 PM MST
Astronomical Twilight 5:19 AM MST 6:41 PM MST
Moon 9:30 AM MST (2/4) 11:06 PM MST (2/4)
Length of Visible Light 11h 12m
Length of Day
10h 15m
Waxing Crescent, 29% of the Moon is Illuminated
Feb 4
Waxing Crescent
Feb 6
First Quarter
Feb 14
Full
Feb 22
Last Quarter
Mar 1
New

Hourly Weather History & Observations

Time (MST) Temp. Windchill Dew Point Humidity Pressure Visibility Wind Dir Wind Speed Gust Speed Precip Events Conditions
12:53 AM 19.0 °F 9.0 °F 15.1 °F 85% 30.14 in 10.0 mi NE 8.1 mph - N/A   Overcast
1:53 AM 19.0 °F 9.0 °F 15.1 °F 85% 30.14 in 10.0 mi NE 8.1 mph - N/A   Overcast
2:24 AM 19.4 °F 10.4 °F 15.8 °F 86% 30.03 in 10.0 mi NE 6.9 mph - N/A   Overcast
2:53 AM 19.0 °F 8.2 °F 15.1 °F 85% 30.15 in 10.0 mi NE 9.2 mph - N/A   Overcast
3:53 AM 19.0 °F 6.8 °F 15.1 °F 85% 30.15 in 10.0 mi NE 11.5 mph - N/A   Overcast
4:46 AM 19.4 °F 10.4 °F 15.8 °F 86% 30.04 in 10.0 mi ENE 6.9 mph - N/A   Overcast
4:53 AM 19.0 °F 8.2 °F 16.0 °F 88% 30.17 in 10.0 mi ENE 9.2 mph - N/A   Overcast
5:36 AM 19.4 °F 9.5 °F 15.8 °F 86% 30.04 in 10.0 mi ENE 8.1 mph - N/A   Overcast
5:53 AM 16.0 °F 1.7 °F 12.9 °F 88% 30.18 in 9.0 mi NNE 13.8 mph - N/A   Overcast
6:53 AM 14.0 °F -0.8 °F 10.9 °F 88% 30.19 in 6.0 mi NE 13.8 mph - N/A   Overcast
7:53 AM 12.9 °F -3.9 °F 10.0 °F 88% 30.20 in 4.0 mi NE 17.3 mph - 0.00 in   Overcast
8:28 AM 12.2 °F -6.3 °F 8.6 °F 85% 30.05 in 2.0 mi NNE 20.7 mph - 0.00 in Snow Light Snow
8:40 AM 12.2 °F -5.3 °F 8.6 °F 85% 30.06 in 1.5 mi NNE 18.4 mph - 0.00 in Snow Light Snow
8:48 AM 12.2 °F -5.3 °F 8.6 °F 85% 30.06 in 1.5 mi NNE 18.4 mph - 0.00 in Snow Light Snow
8:53 AM 12.9 °F -4.9 °F 9.0 °F 84% 30.21 in 1.2 mi NNE 19.6 mph - 0.00 in Snow Light Snow
9:10 AM 12.2 °F -4.3 °F 8.6 °F 85% 30.07 in 0.8 mi NE 16.1 mph 25.3 mph 0.00 in Snow Light Snow
9:25 AM 12.2 °F -5.8 °F 8.6 °F 85% 30.07 in 0.5 mi NE 19.6 mph 25.3 mph 0.00 in Fog , Snow Snow
9:43 AM 12.2 °F -4.3 °F 8.6 °F 85% 30.08 in 1.0 mi NE 16.1 mph - 0.00 in Snow Light Snow
9:53 AM 12.0 °F -6.5 °F 7.0 °F 80% 30.24 in 0.8 mi NE 20.7 mph 27.6 mph 0.00 in Snow Light Snow
10:17 AM 12.2 °F -5.3 °F 6.8 °F 79% 30.09 in 0.8 mi NE 18.4 mph - 0.00 in Snow Light Snow
10:26 AM 12.2 °F -4.3 °F 6.8 °F 79% 30.09 in 1.0 mi NE 16.1 mph - 0.00 in Snow Light Snow
10:53 AM 10.9 °F -7.0 °F 6.1 °F 81% 30.25 in 1.2 mi NE 18.4 mph - 0.00 in Snow Light Snow
11:30 AM 10.4 °F -8.2 °F 3.2 °F 73% 30.10 in 1.5 mi NE 19.6 mph 25.3 mph 0.00 in Snow Light Snow
11:44 AM 10.4 °F -7.2 °F 3.2 °F 73% 30.10 in 1.5 mi NNE 17.3 mph - 0.00 in Snow Light Snow
11:53 AM 10.0 °F -7.6 °F 5.0 °F 80% 30.26 in 1.8 mi NE 17.3 mph - 0.00 in Snow Light Snow
12:33 PM 10.4 °F -8.6 °F 5.0 °F 79% 30.10 in 0.5 mi NNE 20.7 mph - 0.00 in Snow Snow
12:53 PM 10.0 °F -7.1 °F 5.0 °F 80% 30.25 in 0.5 mi NNE 16.1 mph - 0.00 in Snow Snow
1:53 PM 9.0 °F -10.5 °F 3.9 °F 80% 30.27 in 0.5 mi NNE 20.7 mph - 0.00 in Snow Snow
2:12 PM 8.6 °F -9.5 °F 3.2 °F 79% 30.11 in 0.5 mi NNE 17.3 mph - 0.00 in Snow Snow
2:53 PM 7.0 °F -12.6 °F 1.9 °F 80% 30.30 in 0.5 mi NNE 19.6 mph 28.8 mph 0.00 in Snow Snow
3:30 PM 6.8 °F -13.4 °F 1.4 °F 79% 30.15 in 0.8 mi NNE 20.7 mph - 0.00 in Snow Light Snow
3:53 PM 6.1 °F -16.1 °F 1.0 °F 80% 30.33 in 0.8 mi NNE 25.3 mph 32.2 mph 0.00 in Snow Light Snow
4:02 PM 6.8 °F -12.9 °F 1.4 °F 79% 30.16 in 1.2 mi NNE 19.6 mph - 0.00 in Snow Light Snow
4:15 PM 6.8 °F -14.3 °F 1.4 °F 79% 30.16 in 0.8 mi NNE 23.0 mph 27.6 mph 0.00 in Snow Light Snow
4:22 PM 6.8 °F -14.7 °F -0.4 °F 72% 30.17 in 1.2 mi NNE 24.2 mph 28.8 mph 0.00 in Snow Light Snow
4:53 PM 5.0 °F -17.5 °F -0.0 °F 80% 30.35 in 1.5 mi NNE 25.3 mph 28.8 mph 0.00 in Snow Light Snow
5:02 PM 5.0 °F -15.7 °F -0.4 °F 78% 30.19 in 1.5 mi NNE 20.7 mph 29.9 mph 0.00 in Snow Light Snow
5:22 PM 3.2 °F -18.1 °F -0.4 °F 85% 30.20 in 2.5 mi NNE 20.7 mph - 0.00 in Snow Light Snow
5:29 PM 3.2 °F -19.5 °F -0.4 °F 85% 30.21 in 3.0 mi NNE 24.2 mph - 0.00 in Snow Light Snow
5:42 PM 3.2 °F -18.6 °F -2.2 °F 78% 30.22 in 2.5 mi NNE 21.9 mph - 0.00 in Snow Light Snow
5:53 PM 3.9 °F -18.1 °F -2.0 °F 76% 30.42 in 2.5 mi NNE 23.0 mph 31.1 mph 0.00 in Snow Light Snow
6:07 PM 3.2 °F -19.9 °F -2.2 °F 78% 30.24 in 1.5 mi NNE 25.3 mph 32.2 mph 0.00 in Snow Light Snow
6:35 PM 1.4 °F -21.4 °F -2.2 °F 85% 30.27 in 2.5 mi North 23.0 mph 28.8 mph 0.00 in Snow Light Snow
6:53 PM 1.9 °F -19.8 °F -2.9 °F 80% 30.48 in 2.0 mi North 20.7 mph 26.5 mph 0.00 in Snow Light Snow
7:18 PM 1.4 °F -21.4 °F -4.0 °F 78% 30.30 in 2.5 mi North 23.0 mph - 0.00 in Snow Light Snow
7:29 PM 1.4 °F -19.4 °F -4.0 °F 78% 30.31 in 3.0 mi North 18.4 mph - 0.00 in Snow Light Snow
7:43 PM 1.4 °F -19.9 °F -4.0 °F 78% 30.31 in 2.5 mi North 19.6 mph - 0.00 in Snow Light Snow
7:53 PM 1.9 °F -19.2 °F -4.0 °F 76% 30.52 in 2.0 mi North 19.6 mph - 0.00 in Snow Light Snow
8:02 PM 1.4 °F -20.5 °F -4.0 °F 78% 30.33 in 2.0 mi North 20.7 mph - 0.00 in Snow Light Snow
8:22 PM 1.4 °F -21.4 °F -5.8 °F 72% 30.33 in 2.5 mi North 23.0 mph - 0.00 in Snow Light Snow
8:35 PM 1.4 °F -20.5 °F -5.8 °F 72% 30.34 in 3.0 mi North 20.7 mph - 0.00 in Snow Light Snow
8:53 PM 1.0 °F -19.3 °F -5.1 °F 75% 30.55 in 4.0 mi North 17.3 mph - 0.00 in Snow Light Snow
9:53 PM -0.0 °F -21.3 °F -6.0 °F 76% 30.58 in 6.0 mi North 18.4 mph - 0.00 in   Haze
10:51 PM -2.2 °F -19.9 °F -7.6 °F 78% 30.40 in 8.0 mi North 11.5 mph - N/A   Overcast
10:53 PM -2.0 °F -18.7 °F -8.0 °F 76% 30.61 in 9.0 mi NNW 10.4 mph - N/A   Overcast
11:07 PM -2.2 °F -19.9 °F -7.6 °F 78% 30.41 in 10.0 mi NNW 11.5 mph - N/A   Overcast
11:53 PM -0.9 °F -19.1 °F -7.1 °F 75% 30.63 in 4.0 mi NNW 12.7 mph - 0.00 in Snow Light Snow